Weather History for KDAG - April, 2012

Change the Weather History Date:

Monday, April 30, 2012

  Actual Average Record
Temperature  
Mean Temperature 78 °F -  
Max Temperature 93 °F - - ()
Min Temperature 62 °F - - ()
Cooling Degree Days 12    
Growing Degree Days 28 (Base 50)    
Moisture  
Dew Point 33 °F    
Average Humidity 23    
Maximum Humidity 46    
Minimum Humidity 7    
Precipitation  
Precipitation 0.00 in - - ()
Sea Level Pressure  
Sea Level Pressure 29.81 in    
Wind  
Wind Speed 12 mph (WSW)    
Max Wind Speed 22 mph    
Max Gust Speed 28 mph    
Visibility 10 miles    
Events      
T = Trace of Precipitation, MM = Missing Value Source: NWS Daily Summary

Daily Weather History Graph

Daily Weather History Graph

Search for Another Location

Airport or City:

Trip Planner

Search our weather history database for the weather conditions in past years. The results will help you decide how hot, cold, wet, or windy it might be!

Date:

Astronomy

Apr. 30, 2012 Rise Set
Actual Time 5:57 AM PDT 7:32 PM PDT
Civil Twilight 5:30 AM PDT 7:59 PM PDT
Nautical Twilight 4:57 AM PDT 8:31 PM PDT
Astronomical Twilight 4:23 AM PDT 9:05 PM PDT
Moon 1:47 PM PDT (4/30) 2:09 AM PDT (4/30)
Length of Visible Light 14h 29m
Length of Day
13h 35m
Waxing Gibbous, 65% of the Moon is Illuminated
Apr 30
Waxing Gibbous
May 5
Full
May 12
Last Quarter
May 20
New
May 28
First Quarter

Hourly Weather History & Observations

Time (PDT) Temp. Dew Point Humidity Pressure Visibility Wind Dir Wind Speed Gust Speed Precip Events Conditions
12:50 AM 68.0 °F 36.0 °F 31% 29.85 in 10.0 mi West 8.1 mph - N/A   Clear
1:50 AM 64.9 °F 37.0 °F 36% 29.84 in 10.0 mi West 6.9 mph - N/A   Clear
2:50 AM 64.9 °F 39.0 °F 39% 29.84 in 10.0 mi West 9.2 mph - N/A   Clear
3:50 AM 64.0 °F 39.9 °F 41% 29.84 in 10.0 mi WSW 9.2 mph - N/A   Clear
4:50 AM 63.0 °F 39.9 °F 43% 29.85 in 10.0 mi West 10.4 mph - N/A   Clear
5:50 AM 62.1 °F 41.0 °F 46% 29.86 in 10.0 mi WSW 10.4 mph - N/A   Clear
6:50 AM 63.0 °F 42.1 °F 46% 29.87 in 10.0 mi West 11.5 mph - N/A   Clear
7:50 AM 68.0 °F 42.1 °F 39% 29.88 in 10.0 mi WSW 10.4 mph - N/A   Clear
8:50 AM 75.9 °F 39.9 °F 27% 29.87 in 10.0 mi WNW 11.5 mph - N/A   Clear
9:50 AM 79.0 °F 37.0 °F 22% 29.88 in 10.0 mi WNW 12.7 mph - N/A   Clear
10:50 AM 84.0 °F 36.0 °F 18% 29.87 in 10.0 mi West 12.7 mph 18.4 mph N/A   Clear
11:50 AM 86.0 °F 28.9 °F 13% 29.85 in 10.0 mi NW 11.5 mph - N/A   Clear
12:50 PM 88.0 °F 27.0 °F 11% 29.82 in 10.0 mi Calm Calm - N/A   Clear
1:50 PM 91.9 °F 21.0 °F 8% 29.79 in 10.0 mi West 17.3 mph 25.3 mph N/A   Clear
2:01 PM 91.4 °F 21.2 °F 8% 29.86 in 10.0 mi SSW 16.1 mph 23.0 mph N/A   Clear
2:50 PM 93.0 °F 21.0 °F 7% 29.77 in 10.0 mi WSW 16.1 mph 26.5 mph N/A   Clear
3:50 PM 91.9 °F 24.1 °F 9% 29.74 in 10.0 mi WSW 9.2 mph 21.9 mph N/A   Clear
4:50 PM 93.9 °F 24.1 °F 8% 29.72 in 10.0 mi West 18.4 mph 25.3 mph N/A   Clear
5:50 PM 90.0 °F 27.0 °F 10% 29.73 in 10.0 mi WSW 19.6 mph 25.3 mph N/A   Clear
6:50 PM 87.1 °F 33.1 °F 15% 29.74 in 10.0 mi West 20.7 mph - N/A   Clear
7:50 PM 82.9 °F 34.0 °F 17% 29.74 in 10.0 mi West 21.9 mph 27.6 mph N/A   Clear
9:13 PM 78.8 °F 35.6 °F 21% 29.83 in 10.0 mi SW 15.0 mph - N/A   Partly Cloudy
9:50 PM 77.0 °F 37.0 °F 24% 29.75 in 8.0 mi SSW 19.6 mph 27.6 mph N/A   Partly Cloudy
10:50 PM 77.0 °F 36.0 °F 23% 29.73 in 10.0 mi WSW 19.6 mph - N/A   Clear
11:50 PM 77.0 °F 37.0 °F 24% 29.72 in 10.0 mi SW 19.6 mph - N/A   Clear